"2009-01-14 00:00:30",538919,17.71,320.6,3.818,0.682,9.88,102.1313,4.739,6.01,32.32,0,109.9,13.42,5.51,282.6
"2009-01-14 00:01:00",538920,17.69,319.9,3.86,0.552,10.07,102.1085,4.68,5.99,32.49,0,109.9,13.42,5.45,281.9
"2009-01-14 00:01:30",538921,17.54,322,1.969,0.771,10.23,102.1017,4.663,5.961,32.51,0,109.9,13.42,5.43,284.0
"2009-01-14 00:02:00",538922,16.87,323.6,3.142,0.916,10.37,102.1006,4.66,5.935,32.34,0,109.9,13.42,5.43,285.6
"2009-01-14 00:02:30",538923,16.88,323.1,3.384,0.728,10.27,102.0955,4.647,5.925,32.3,0,109.9,13.43,5.42,285.1
"2009-01-14 00:03:00",538924,17.15,322.2,3.481,0.765,10.3,102.0856,4.622,5.901,32.37,0,109.9,13.43,5.39,284.2
"2009-01-14 00:03:30",538925,17.55,323.4,2.966,0.753,10.31,102.0825,4.614,5.889,32.4,0,109.9,13.43,5.38,285.4
"2009-01-14 00:04:00",538926,18.35,323.7,2.937,0.783,10.01,102.078,4.602,5.875,32.54,0,109.8,13.43,5.37,285.7
"2009-01-14 00:04:30",538927,18.28,323.1,3.169,0.694,10.21,102.0681,4.577,5.882,32.71,0,109.8,13.43,5.35,285.1
"2009-01-14 00:05:00",538928,18.2,322.9,3.416,0.66,10.22,102.0639,4.566,5.85,32.79,0,109.8,13.43,5.33,284.9
"2009-01-14 00:05:30",538929,18.61,322.7,2.813,0.603,10.17,102.0466,4.522,5.83,32.96,0,109.8,13.43,5.29,284.7
"2009-01-14 00:06:00",538930,18.51,323.4,4.224,0.634,10.3,102.0365,4.496,5.817,32.97,0,109.9,13.42,5.26,285.4
"2009-01-14 00:06:30",538931,18.74,322.2,4.195,0.641,10.14,102.0374,4.499,5.809,33.07,0,109.8,13.42,5.27,284.2
"2009-01-14 00:07:00",538932,19.16,322.3,2.798,0.857,10.21,102.0233,4.463,5.784,33.36,0,109.8,13.42,5.23,284.3
"2009-01-14 00:07:30",538933,18.81,320.7,2.181,0.772,10.25,102.0147,4.441,5.758,33.49,0,109.8,13.42,5.21,282.7
"2009-01-14 00:08:00",538934,18.54,319.8,3.424,0.701,10.11,102.0085,4.425,5.721,33.77,0,109.8,13.42,5.19,281.8
"2009-01-14 00:08:30",538935,19.09,323,3.195,0.958,10.1,101.9857,4.367,5.704,33.85,0,109.8,13.42,5.13,285.0
"2009-01-14 00:09:00",538936,18.98,322.5,3.194,0.824,10.12,101.982,4.357,5.67,33.99,0,109.8,13.43,5.12,284.5
"2009-01-14 00:09:30",538937,19.03,321.2,4.202,0.855,10.19,101.9646,4.313,5.637,34.28,0,109.8,13.43,5.08,283.2
"2009-01-14 00:10:00",538938,19.31,321.5,3.896,0.962,10.21,101.9575,4.295,5.598,34.45,0,109.8,13.43,5.06,283.5
"2009-01-14 00:10:30",538939,20.52,323.3,3.54,0.756,10.32,101.95,4.276,5.573,34.26,0,109.8,13.43,5.04,285.3
"2009-01-14 00:11:00",538940,20.49,324.1,3.488,0.93,10.34,101.9393,4.248,5.532,33.96,0,109.8,13.43,5.02,286.1
"2009-01-14 00:11:30",538941,20.81,323.9,2.865,0.748,10.51,101.9326,4.231,5.517,34.39,0,109.8,13.43,5.00,285.9
"2009-01-14 00:12:00",538942,21.21,324.5,2.716,0.866,10.4,101.9326,4.231,5.497,34.01,0,109.8,13.43,5.00,286.5
"2009-01-14 00:12:30",538943,20.63,322.6,2.951,0.861,10.32,101.9292,4.222,5.488,34.5,0,109.8,13.43,4.99,284.6
"2009-01-14 00:13:00",538944,20.85,323.2,3.553,0.757,10.39,101.915,4.186,5.463,34.38,0,109.8,13.44,4.95,285.2
"2009-01-14 00:13:30",538945,21.27,323.4,3.155,0.562,10.66,101.9077,4.168,5.458,34.36,0,109.8,13.44,4.93,285.4
"2009-01-14 00:14:00",538946,20.76,323.7,3.618,0.761,10.41,101.9046,4.16,5.455,34.53,0,109.8,13.44,4.93,285.7
"2009-01-14 00:14:30",538947,20.75,324,3.682,0.773,10.44,101.8989,4.145,5.419,34.63,0,109.8,13.44,4.91,286.0
"2009-01-14 00:15:00",538948,21.02,322.9,3.534,0.592,10.58,101.8989,4.145,5.404,34.57,0,109.8,13.44,4.91,284.9
"2009-01-14 00:15:30",538949,21.26,324.2,3.982,0.554,10.63,101.8989,4.145,5.407,34.65,0,109.8,13.44,4.91,286.2
"2009-01-14 00:16:00",538950,21.2,324.8,3.215,0.783,10.48,101.8987,4.144,5.392,34.89,0,109.8,13.44,4.91,286.8
"2009-01-14 00:16:30",538951,21.34,326.1,2.903,0.778,10.52,101.897,4.14,5.382,34.68,0,109.8,13.44,4.91,288.1
"2009-01-14 00:17:00",538952,21.19,324.6,3.326,0.954,10.47,101.8919,4.127,5.379,34.82,0,109.8,13.44,4.89,286.6
"2009-01-14 00:17:30",538953,21.63,325.4,3.462,0.517,10.6,101.8851,4.11,5.36,34.94,0,109.8,13.44,4.88,287.4
"2009-01-14 00:18:00",538954,20.61,325.5,2.564,0.839,10.34,101.8755,4.085,5.354,35.25,0,109.8,13.44,4.85,287.5
"2009-01-14 00:18:30",538955,19.98,325.3,3.532,1.125,10.29,101.8653,4.059,5.358,35.25,0,109.8,13.44,4.83,287.3
"2009-01-14 00:19:00",538956,20.27,323.8,3.552,0.736,10.41,101.865,4.059,5.329,35.46,0,109.8,13.44,4.82,285.8
"2009-01-14 00:19:30",538957,20.23,324.8,3.232,0.839,10.55,101.8622,4.051,5.322,35.47,0,109.8,13.44,4.82,286.8
"2009-01-14 00:20:00",538958,20.47,324.1,3.084,0.763,10.34,101.8529,4.028,5.29,35.31,0,109.8,13.44,4.79,286.1
"2009-01-14 00:20:30",538959,19.67,323.4,3.298,1.014,10.23,101.8478,4.015,5.306,35.47,0,109.8,13.44,4.78,285.4
"2009-01-14 00:21:00",538960,20.65,325.7,3.176,0.844,10.29,101.8447,4.007,5.277,35.67,0,109.8,13.44,4.77,287.7
"2009-01-14 00:21:30",538961,20.69,325.4,2.134,0.722,10.39,101.8328,3.976,5.275,35.62,0,109.8,13.44,4.74,287.4
"2009-01-14 00:22:00",538962,19.54,325.3,3.314,0.956,10.17,101.8311,3.972,5.272,35.72,0,109.8,13.44,4.74,287.3
"2009-01-14 00:22:30",538963,18.38,324.2,3.575,0.814,10.16,101.8291,3.967,5.252,36,0,109.8,13.44,4.73,286.2
"2009-01-14 00:23:00",538964,20.07,326.1,3.935,0.794,10.37,101.8156,3.932,5.226,35.81,0,109.8,13.44,4.70,288.1
"2009-01-14 00:23:30",538965,18.73,327.6,4.717,1.086,10.34,101.8113,3.922,5.222,36.08,0,109.8,13.44,4.69,289.6
"2009-01-14 00:24:00",538966,17.1,325.7,2.902,1.315,9.92,101.7981,3.888,5.198,36.76,0,109.8,13.44,4.65,287.7
"2009-01-14 00:24:30",538967,19.25,324.4,2.544,0.942,10.07,101.7969,3.885,5.188,36.41,0,109.8,13.44,4.65,286.4
"2009-01-14 00:25:00",538968,19.65,322.7,3.875,0.608,10.1,101.7868,3.859,5.17,36.22,0,109.8,13.44,4.62,284.7
"2009-01-14 00:25:30",538969,19.22,323.5,1.791,0.747,10.36,101.7834,3.85,5.152,36.08,0,109.8,13.44,4.62,285.5
"2009-01-14 00:26:00",538970,19.9,323.2,3.24,0.894,10.32,101.7823,3.847,5.138,35.95,0,109.8,13.44,4.61,285.2
"2009-01-14 00:26:30",538971,19.92,325.6,3.872,1.128,10.26,101.7886,3.863,5.132,35.84,0,109.8,13.45,4.63,287.6
"2009-01-14 00:27:00",538972,20.34,324.4,2.838,0.84,10.12,101.7874,3.86,5.125,36.31,0,109.8,13.45,4.63,286.4
"2009-01-14 00:27:30",538973,19.27,324.6,2.723,1.225,10.49,101.7868,3.859,5.123,36.14,0,109.8,13.45,4.62,286.6
"2009-01-14 00:28:00",538974,20.37,327,2.759,1.164,10.42,101.7917,3.871,5.129,36.12,0,109.8,13.45,4.64,289.0
"2009-01-14 00:28:30",538975,20.9,326,3.15,1.184,10.67,101.8019,3.897,5.135,35.71,0,109.8,13.45,4.66,288.0
"2009-01-14 00:29:00",538976,20.08,325.6,3.886,1.413,10.59,101.8116,3.922,5.127,35.31,0,109.8,13.45,4.69,287.6
"2009-01-14 00:29:30",538977,21.33,326,2.976,1.165,10.76,101.8128,3.925,5.137,35.38,0,109.8,13.46,4.69,288.0
"2009-01-14 00:30:00",538978,21.25,325.4,2.678,0.993,10.71,101.8236,3.953,5.148,35.16,0,109.8,13.45,4.72,287.4
"2009-01-14 00:30:30",538979,21.17,325,3.487,0.906,10.69,101.8448,4.007,5.174,34.76,0,109.8,13.46,4.77,287.0
"2009-01-14 00:31:00",538980,20.72,326.1,3.12,1.031,10.88,101.8556,4.034,5.209,34.7,0,109.8,13.46,4.80,288.1
"2009-01-14 00:31:30",538981,21.07,325.8,3.368,1.142,10.59,101.8697,4.071,5.22,35.02,0,109.8,13.46,4.84,287.8
"2009-01-14 00:32:00",538982,22.45,324.3,3.949,0.853,10.87,101.8828,4.104,5.231,34.55,0,109.8,13.46,4.87,286.3
"2009-01-14 00:32:30",538983,21.72,326,3.501,0.949,11.09,101.8918,4.127,5.257,33.98,0,109.8,13.46,4.89,288.0
"2009-01-14 00:33:00",538984,21.15,326.9,2.932,0.893,10.94,101.909,4.171,5.291,34.15,0,109.8,13.46,4.94,288.9
"2009-01-14 00:33:30",538985,21.71,324.9,3.088,0.821,10.98,101.9292,4.222,5.321,33.93,0,109.8,13.46,4.99,286.9
"2009-01-14 00:34:00",538986,21.9,325.1,3.733,0.945,11.24,101.9394,4.248,5.337,33.6,0,109.8,13.46,5.02,287.1
"2009-01-14 00:34:30",538987,20.31,326.6,3.866,1.059,11.41,101.9611,4.304,5.392,33.22,0,109.8,13.46,5.07,288.6
"2009-01-14 00:35:00",538988,18.99,327.2,4.443,1.117,11.29,101.9906,4.379,5.425,32.96,0,109.8,13.46,5.15,289.2
"2009-01-14 00:35:30",538989,20.55,324.6,2.671,0.763,10.64,102.0098,4.428,5.477,33.33,0,109.8,13.46,5.20,286.6
"2009-01-14 00:36:00",538990,21.15,325.1,4.076,1.019,10.48,102.0279,4.474,5.531,33.71,0,109.7,13.46,5.24,287.1
"2009-01-14 00:36:30",538991,20.73,325,4.319,1.169,10.53,102.0341,4.49,5.563,34.25,0,109.8,13.46,5.26,287.0
"2009-01-14 00:37:00",538992,20.67,322.8,3.868,0.983,10.59,102.0341,4.49,5.559,33.74,0,109.8,13.46,5.26,284.8
"2009-01-14 00:37:30",538993,21.02,323.3,2.975,0.94,10.76,102.0344,4.491,5.597,33.81,0,109.8,13.46,5.26,285.3
"2009-01-14 00:38:00",538994,21.37,322.4,3.551,0.69,10.86,102.0353,4.493,5.613,33.38,0,109.8,13.46,5.26,284.4
"2009-01-14 00:38:30",538995,20.92,321.1,3.926,0.59,10.93,102.0353,4.493,5.64,33.06,0,109.8,13.45,5.26,283.1
"2009-01-14 00:39:00",538996,20.75,319.2,3.842,0.654,10.8,102.0356,4.494,5.665,33.09,0,109.8,13.45,5.26,281.2
"2009-01-14 00:39:30",538997,21.18,319.6,1.829,0.822,10.98,102.0389,4.503,5.656,33.02,0,109.7,13.45,5.27,281.6
"2009-01-14 00:40:00",538998,20.79,322,2.983,0.973,10.8,102.0522,4.537,5.693,33.05,0,109.7,13.45,5.30,284.0
"2009-01-14 00:40:30",538999,20,319.8,3.349,0.92,10.85,102.063,4.564,5.69,33,0,109.8,13.45,5.33,281.8
"2009-01-14 00:41:00",539000,21.09,320.8,3.834,0.734,10.76,102.0692,4.58,5.707,33.03,0,109.8,13.45,5.35,282.8
"2009-01-14 00:41:30",539001,19.96,319.5,4.824,0.671,10.85,102.0692,4.58,5.714,33.11,0,109.7,13.45,5.35,281.5
"2009-01-14 00:42:00",539002,19.97,320.2,2.988,1.044,10.78,102.0692,4.58,5.732,33,0,109.8,13.45,5.35,282.2
"2009-01-14 00:42:30",539003,19.02,319.6,3.45,0.741,10.69,102.0692,4.58,5.744,33.02,0,109.8,13.45,5.35,281.6
"2009-01-14 00:43:00",539004,18.92,316,3.027,0.992,10.58,102.0692,4.58,5.76,33.16,0,109.8,13.45,5.35,278.0
"2009-01-14 00:43:30",539005,19.04,315.6,3.166,0.931,10.59,102.0692,4.58,5.752,33.08,0,109.8,13.46,5.35,277.6
"2009-01-14 00:44:00",539006,19.21,316.8,3.082,0.91,10.54,102.0689,4.579,5.76,33.13,0,109.7,13.46,5.35,278.8
"2009-01-14 00:44:30",539007,18.56,316.1,3.395,0.804,10.53,102.0692,4.58,5.775,32.9,0,109.7,13.46,5.35,278.1
"2009-01-14 00:45:00",539008,18.85,316.2,3.811,0.848,10.47,102.0681,4.577,5.76,32.99,0,109.8,13.46,5.35,278.2
"2009-01-14 00:45:30",539009,19,317.2,3.155,0.847,10.46,102.0641,4.567,5.765,33.02,0,109.7,13.46,5.33,279.2
"2009-01-14 00:46:00",539010,20.5,318.9,4.041,1.162,10.35,102.0582,4.552,5.778,33.2,0,109.8,13.46,5.32,280.9
"2009-01-14 00:46:30",539011,19.96,318.6,3.925,1.258,10.53,102.0534,4.539,5.761,33.21,0,109.8,13.46,5.31,280.6
"2009-01-14 00:47:00",539012,18.47,318.1,5.152,0.915,10.26,102.0486,4.527,5.753,33.46,0,109.8,13.46,5.30,280.1
"2009-01-14 00:47:30",539013,16.9,318.3,5.313,0.768,10.19,102.0356,4.494,5.759,33.77,0,109.7,13.46,5.26,280.3
"2009-01-14 00:48:00",539014,18.5,320.6,4.098,1.862,10.21,102.0339,4.49,5.706,33.75,0,109.8,13.46,5.26,282.6
"2009-01-14 00:48:30",539015,19.59,317.5,3.751,0.908,10.41,102.0245,4.466,5.706,33.39,0,109.8,13.46,5.23,279.5
"2009-01-14 00:49:00",539016,20.93,320.6,3.085,0.811,10.68,102.0186,4.451,5.684,33.21,0,109.7,13.46,5.22,282.6
"2009-01-14 00:49:30",539017,19.9,318.8,3.201,1.036,10.65,102.02,4.454,5.682,33.25,0,109.7,13.46,5.22,280.8
"2009-01-14 00:50:00",539018,19.45,320.7,3.307,0.924,10.5,102.0186,4.451,5.69,33.33,0,109.8,13.46,5.22,282.7
"2009-01-14 00:50:30",539019,18.8,319.9,3.948,0.828,10.5,102.0186,4.451,5.695,33.27,0,109.8,13.46,5.22,281.9
"2009-01-14 00:51:00",539020,20.57,319.9,3.543,0.805,10.63,102.018,4.449,5.679,33.37,0,109.7,13.46,5.22,281.9
"2009-01-14 00:51:30",539021,20.81,321.5,3.094,0.641,10.77,102.0183,4.45,5.687,33.35,0,109.7,13.46,5.22,283.5
"2009-01-14 00:52:00",539022,19.9,318.5,3.896,0.812,10.69,102.018,4.449,5.674,33.32,0,109.7,13.46,5.22,280.5
"2009-01-14 00:52:30",539023,19.42,318.5,4.041,1.131,10.58,102.0192,4.452,5.685,33.3,0,109.7,13.46,5.22,280.5
"2009-01-14 00:53:00",539024,19.81,317.1,4.495,1.006,10.55,102.022,4.459,5.671,33.39,0,109.7,13.46,5.23,279.1
"2009-01-14 00:53:30",539025,20.92,317.5,3.484,0.72,10.99,102.0296,4.479,5.688,33.06,0,109.7,13.46,5.25,279.5
"2009-01-14 00:54:00",539026,20.45,317.6,3.157,1.011,10.73,102.0353,4.493,5.682,33.05,0,109.7,13.46,5.26,279.6
"2009-01-14 00:54:30",539027,19.18,314.6,4.107,0.693,10.67,102.0353,4.493,5.712,33.17,0,109.7,13.46,5.26,276.6
"2009-01-14 00:55:00",539028,19.28,317.9,4.418,1.219,10.42,102.0353,4.493,5.697,33.23,0,109.7,13.46,5.26,279.9
"2009-01-14 00:55:30",539029,19.45,321.8,3.371,1.469,10.54,102.0353,4.493,5.699,33.34,0,109.7,13.46,5.26,283.8
"2009-01-14 00:56:00",539030,20.67,320.6,2.678,0.973,10.45,102.0353,4.493,5.718,33.36,0,109.7,13.46,5.26,282.6
"2009-01-14 00:56:30",539031,19.53,320.5,3.756,1.407,10.36,102.0353,4.493,5.717,33.56,0,109.8,13.46,5.26,282.5
"2009-01-14 00:57:00",539032,20.07,320.8,3.487,0.835,10.54,102.0353,4.493,5.723,33.37,0,109.7,13.46,5.26,282.8
"2009-01-14 00:57:30",539033,20.28,320.7,3.75,0.924,10.77,102.0353,4.493,5.716,33.43,0,109.7,13.46,5.26,282.7
"2009-01-14 00:58:00",539034,19.57,322.1,3.87,1.069,10.27,102.0319,4.485,5.717,33.68,0,109.8,13.46,5.25,284.1
"2009-01-14 00:58:30",539035,20.53,320.4,3.723,0.689,10.69,102.0214,4.458,5.704,33.6,0,109.7,13.46,5.23,282.4
"2009-01-14 00:59:00",539036,20.3,319.2,3.529,0.839,10.85,102.0217,4.459,5.687,33.27,0,109.7,13.46,5.23,281.2
"2009-01-14 00:59:30",539037,20.12,317.3,2.967,0.82,10.72,102.0257,4.469,5.71,33.45,0,109.7,13.46,5.24,279.3
"2009-01-14 01:00:00",539038,20.57,316.5,3.908,0.606,10.69,102.0265,4.471,5.712,33.38,0,109.7,13.46,5.24,278.5
"2009-01-14 01:00:30",539039,19.43,320.2,4.148,0.962,10.57,102.0293,4.478,5.718,33.48,0,109.7,13.46,5.25,282.2
"2009-01-14 01:01:00",539040,18.96,318.6,3.637,0.978,10.6,102.0234,4.463,5.699,33.52,0,109.7,13.47,5.23,280.6
"2009-01-14 01:01:30",539041,19.84,319.1,3.422,0.714,10.6,102.0197,4.454,5.693,33.56,0,109.7,13.47,5.22,281.1
"2009-01-14 01:02:00",539042,19.83,318.4,3.336,0.779,10.64,102.0194,4.453,5.687,33.53,0,109.7,13.47,5.22,280.4
"2009-01-14 01:02:30",539043,19.58,318.2,3.599,0.889,10.66,102.0209,4.456,5.704,33.29,0,109.7,13.47,5.22,280.2
"2009-01-14 01:03:00",539044,19.29,315.5,4.158,0.596,10.61,102.0276,4.474,5.698,33.35,0,109.7,13.47,5.24,277.5
"2009-01-14 01:03:30",539045,18.76,316.7,4.118,0.878,10.82,102.0319,4.485,5.713,33.34,0,109.7,13.47,5.25,278.7
"2009-01-14 01:04:00",539046,18.5,314.7,4.321,1.264,10.5,102.0347,4.492,5.693,33.36,0,109.7,13.47,5.26,276.7
"2009-01-14 01:04:30",539047,19.34,315.6,2.731,0.853,10.43,102.035,4.493,5.725,33.41,0,109.7,13.47,5.26,277.6
"2009-01-14 01:05:00",539048,18.47,318.5,3.924,0.827,10.25,102.0347,4.492,5.691,33.53,0,109.7,13.47,5.26,280.5
"2009-01-14 01:05:30",539049,18.65,316.6,3.596,0.795,10.51,102.0353,4.493,5.705,33.48,0,109.7,13.47,5.26,278.6
"2009-01-14 01:06:00",539050,18.11,316.9,4.266,0.735,10.35,102.0341,4.49,5.704,33.48,0,109.7,13.47,5.26,278.9
"2009-01-14 01:06:30",539051,18.43,315.8,2.257,0.861,10.3,102.0341,4.49,5.726,33.56,0,109.7,13.47,5.26,277.8
"2009-01-14 01:07:00",539052,17.45,315.6,3.91,0.679,10.32,102.0313,4.483,5.701,33.55,0,109.7,13.47,5.25,277.6
"2009-01-14 01:07:30",539053,17.03,317.1,2.938,0.896,10.27,102.0237,4.464,5.713,33.64,0,109.7,13.47,5.23,279.1
"2009-01-14 01:08:00",539054,17.3,315.1,3.593,1.03,10.15,102.0195,4.453,5.704,33.68,0,109.7,13.47,5.22,277.1
"2009-01-14 01:08:30",539055,17.55,316.2,4.062,0.94,10.15,102.0186,4.451,5.705,33.69,0,109.7,13.47,5.22,278.2
"2009-01-14 01:09:00",539056,17.01,317.9,4.467,0.633,10.05,102.0107,4.431,5.679,33.85,0,109.7,13.47,5.20,279.9
"2009-01-14 01:09:30",539057,17.05,319.4,4.175,0.639,10.18,102.0031,4.411,5.663,33.89,0,109.7,13.47,5.18,281.4
"2009-01-14 01:10:00",539058,18.31,318.9,3.237,0.901,10.22,102.0025,4.41,5.675,33.8,0,109.7,13.47,5.18,280.9
"2009-01-14 01:10:30",539059,17.39,318.3,3.017,1.065,10,102.0037,4.413,5.665,33.95,0,109.7,13.47,5.18,280.3
"2009-01-14 01:11:00",539060,17.38,318.2,4.651,0.976,10.08,101.9988,4.4,5.651,34.11,0,109.7,13.47,5.17,280.2
"2009-01-14 01:11:30",539061,17.48,318.6,3.713,0.472,10.39,101.9955,4.392,5.629,33.95,0,109.7,13.46,5.16,280.6
"2009-01-14 01:12:00",539062,17.07,316,6.208,0.777,10.12,101.9867,4.369,5.636,34.14,0,109.7,13.46,5.14,278.0
"2009-01-14 01:12:30",539063,18.05,317.3,4.149,0.704,10.37,101.9893,4.376,5.63,33.9,0,109.7,13.46,5.14,279.3
"2009-01-14 01:13:00",539064,16.57,316.6,4.339,0.859,10.18,101.9887,4.374,5.616,34.16,0,109.7,13.46,5.14,278.6
"2009-01-14 01:13:30",539065,16.64,317.5,2.063,0.972,10.23,101.9867,4.369,5.623,34.06,0,109.7,13.46,5.14,279.5
"2009-01-14 01:14:00",539066,17.31,317.5,4.274,0.806,10.27,101.9916,4.382,5.605,33.91,0,109.7,13.46,5.15,279.5
"2009-01-14 01:14:30",539067,16.71,316.8,3.624,1.09,10.16,101.9928,4.385,5.621,33.86,0,109.7,13.46,5.15,278.8
"2009-01-14 01:15:00",539068,17.43,316.3,4.046,1.106,10.12,101.9919,4.383,5.605,33.97,0,109.7,13.46,5.15,278.3
"2009-01-14 01:15:30",539069,16.73,315.9,3.71,0.866,10.11,101.9914,4.381,5.61,34.08,0,109.7,13.46,5.15,277.9
"2009-01-14 01:16:00",539070,16.45,315.5,3.307,0.93,9.95,101.9885,4.374,5.602,34.2,0,109.7,13.47,5.14,277.5
"2009-01-14 01:16:30",539071,16.67,314.6,2.961,0.872,10.17,101.9905,4.379,5.604,33.9,0,109.7,13.47,5.15,276.6
"2009-01-14 01:17:00",539072,17.39,317.2,4.137,0.95,10.1,101.9939,4.388,5.59,33.88,0,109.7,13.47,5.16,279.2
"2009-01-14 01:17:30",539073,16.59,314.1,3.407,0.855,10.27,101.9933,4.386,5.606,33.78,0,109.7,13.47,5.15,276.1
"2009-01-14 01:18:00",539074,15.37,314.8,3.16,0.837,9.94,101.9964,4.394,5.61,33.94,0,109.7,13.47,5.16,276.8
"2009-01-14 01:18:30",539075,16.74,318.1,2.582,0.9,9.84,101.9953,4.391,5.624,33.99,0,109.7,13.47,5.16,280.1
"2009-01-14 01:19:00",539076,17.12,318.6,4.212,0.849,9.8,101.9965,4.394,5.591,34.2,0,109.7,13.47,5.16,280.6
"2009-01-14 01:19:30",539077,18.33,318.6,4.254,0.805,10.18,101.9939,4.388,5.611,34.21,0,109.7,13.47,5.16,280.6
"2009-01-14 01:20:00",539078,17.86,320.5,4.231,0.936,10.13,101.9956,4.392,5.614,34.35,0,109.7,13.47,5.16,282.5
"2009-01-14 01:20:30",539079,17.12,320.1,3.66,1.008,10.04,101.9883,4.373,5.621,34.43,0,109.7,13.47,5.14,282.1
"2009-01-14 01:21:00",539080,16.43,315.5,3.78,0.948,9.97,101.9781,4.347,5.593,34.48,0,109.7,13.47,5.11,277.5
"2009-01-14 01:21:30",539081,18.5,320,3.505,1.042,10.09,101.9772,4.345,5.589,34.62,0,109.7,13.47,5.11,282.0
"2009-01-14 01:22:00",539082,17.8,317.1,5.832,1.045,9.77,101.9761,4.342,5.574,34.95,0,109.7,13.47,5.11,279.1
"2009-01-14 01:22:30",539083,18.91,319.9,4.545,0.854,10.14,101.9625,4.308,5.584,34.78,0,109.7,13.47,5.07,281.9
"2009-01-14 01:23:00",539084,19,319.4,3.57,1.256,10.05,101.9544,4.287,5.537,34.85,0,109.7,13.47,5.05,281.4
"2009-01-14 01:23:30",539085,18.32,321.1,4.471,0.973,10.24,101.9493,4.274,5.537,34.81,0,109.7,13.47,5.04,283.1
"2009-01-14 01:24:00",539086,17.99,323.8,3.206,1.645,10.08,101.9433,4.258,5.542,34.96,0,109.7,13.47,5.03,285.8
"2009-01-14 01:24:30",539087,16.72,319.4,3.677,0.856,9.9,101.9419,4.255,5.525,35.32,0,109.7,13.47,5.02,281.4
"2009-01-14 01:25:00",539088,17.16,318.5,3.323,0.876,9.85,101.9244,4.21,5.502,35.44,0,109.7,13.47,4.98,280.5
"2009-01-14 01:25:30",539089,16.46,318.9,2.909,0.953,9.93,101.9146,4.185,5.476,35.65,0,109.7,13.47,4.95,280.9
"2009-01-14 01:26:00",539090,17.15,320,4.259,0.943,10.05,101.91,4.173,5.462,35.55,0,109.8,13.47,4.94,282.0
"2009-01-14 01:26:30",539091,18.11,316.6,4.71,0.849,10.13,101.8985,4.144,5.445,35.31,0,109.7,13.47,4.91,278.6
"2009-01-14 01:27:00",539092,15.58,319.6,3.01,1.079,9.86,101.8953,4.136,5.417,35.52,0,109.7,13.47,4.90,281.6
"2009-01-14 01:27:30",539093,15.67,318.4,3.53,1.228,9.78,101.8843,4.108,5.4,35.92,0,109.7,13.47,4.87,280.4
"2009-01-14 01:28:00",539094,19.31,320.2,3.217,1.247,9.99,101.8824,4.103,5.373,35.63,0,109.7,13.47,4.87,282.2
"2009-01-14 01:28:30",539095,17.22,315.4,4.579,1.064,9.89,101.8821,4.102,5.364,35.73,0,109.7,13.47,4.87,277.4
"2009-01-14 01:29:00",539096,19.06,318,3.502,1.122,10.09,101.8722,4.077,5.357,35.6,0,109.7,13.47,4.84,280.0
"2009-01-14 01:29:30",539097,17.42,316.3,4.947,1.099,10.04,101.8708,4.073,5.342,35.74,0,109.7,13.47,4.84,278.3
"2009-01-14 01:30:00",539098,16.21,320.3,4.359,0.895,9.78,101.8671,4.064,5.323,35.99,0,109.7,13.47,4.83,282.3
"2009-01-14 01:30:30",539099,14.96,319.8,3.779,0.886,9.74,101.8558,4.035,5.33,36.21,0,109.7,13.47,4.80,281.8
"2009-01-14 01:31:00",539100,16.13,317.8,4.476,0.782,9.85,101.8505,4.021,5.302,35.97,0,109.7,13.47,4.79,279.8
"2009-01-14 01:31:30",539101,16.74,316,2.655,0.916,10,101.8502,4.021,5.29,35.83,0,109.7,13.47,4.79,278.0
"2009-01-14 01:32:00",539102,16.31,313.4,3.986,1.189,9.75,101.8502,4.021,5.289,35.87,0,109.7,13.47,4.79,275.4
"2009-01-14 01:32:30",539103,18.04,315,4.566,1.499,9.84,101.8505,4.021,5.284,35.97,0,109.7,13.47,4.79,277.0
"2009-01-14 01:33:00",539104,16.49,318.5,5.154,1.055,9.78,101.8513,4.024,5.273,36.03,0,109.7,13.48,4.79,280.5
"2009-01-14 01:33:30",539105,15.97,313.9,2.634,0.887,9.82,101.8493,4.018,5.264,36.18,0,109.7,13.48,4.78,275.9
"2009-01-14 01:34:00",539106,15.86,314.3,3.757,0.738,9.64,101.849,4.018,5.262,36.25,0,109.8,13.48,4.78,276.3
"2009-01-14 01:34:30",539107,15.5,314.7,4.764,0.895,9.71,101.8499,4.02,5.251,36.09,0,109.7,13.48,4.79,276.7
"2009-01-14 01:35:00",539108,15.06,314.4,4.026,0.588,9.68,101.8499,4.02,5.234,36.27,0,109.7,13.48,4.79,276.4
"2009-01-14 01:35:30",539109,15.07,313.3,3.075,0.675,9.65,101.8496,4.019,5.242,36.32,0,109.7,13.48,4.79,275.3
"2009-01-14 01:36:00",539110,14.29,315.5,4.113,0.809,9.36,101.8428,4.002,5.243,36.46,0,109.7,13.48,4.77,277.5
"2009-01-14 01:36:30",539111,17.17,317.1,4.621,1.28,9.63,101.8383,3.99,5.229,36.04,0,109.7,13.48,4.76,279.1
"2009-01-14 01:37:00",539112,15.87,315.9,3.609,1.244,9.63,101.8457,4.009,5.218,35.8,0,109.7,13.48,4.78,277.9
"2009-01-14 01:37:30",539113,16.68,317.9,4.065,0.748,9.88,101.8513,4.024,5.21,36.01,0,109.7,13.48,4.79,279.9
"2009-01-14 01:38:00",539114,14.99,314.1,3.978,1.185,9.62,101.8536,4.029,5.23,35.87,0,109.7,13.48,4.80,276.1
"2009-01-14 01:38:30",539115,14.41,310.1,4.122,1.387,9.46,101.8533,4.029,5.232,36.23,0,109.7,13.48,4.79,272.1
"2009-01-14 01:39:00",539116,15.94,312.4,3.706,0.843,9.5,101.8533,4.029,5.213,35.94,0,109.7,13.48,4.79,274.4
"2009-01-14 01:39:30",539117,16.84,316.8,3.745,0.992,9.89,101.8545,4.032,5.218,35.71,0,109.7,13.48,4.80,278.8
"2009-01-14 01:40:00",539118,15.2,316.3,4.335,1.067,9.48,101.8556,4.035,5.223,35.82,0,109.7,13.48,4.80,278.3
"2009-01-14 01:40:30",539119,14.75,317.1,3.982,1.088,9.31,101.8533,4.029,5.238,36.3,0,109.7,13.48,4.79,279.1
"2009-01-14 01:41:00",539120,17.09,315.7,4.323,1.101,9.6,101.8551,4.033,5.238,36.08,0,109.7,13.48,4.80,277.7
"2009-01-14 01:41:30",539121,16.58,316.5,4.529,1.138,9.91,101.8554,4.034,5.228,35.53,0,109.7,13.48,4.80,278.5
"2009-01-14 01:42:00",539122,15.81,315.3,4.882,1.537,9.74,101.8562,4.036,5.244,35.67,0,109.7,13.48,4.80,277.3
"2009-01-14 01:42:30",539123,18.05,319,4.396,1.065,9.7,101.8582,4.041,5.251,35.71,0,109.7,13.49,4.81,281.0
"2009-01-14 01:43:00",539124,15.64,315.3,4.531,1.03,9.68,101.8574,4.039,5.249,36.11,0,109.7,13.49,4.81,277.3
"2009-01-14 01:43:30",539125,15.78,314.3,5.581,0.978,9.7,101.8591,4.043,5.241,36.32,0,109.7,13.48,4.81,276.3
"2009-01-14 01:44:00",539126,15.17,319.9,6.357,1.633,9.56,101.8565,4.037,5.235,36.39,0,109.7,13.48,4.80,281.9
"2009-01-14 01:44:30",539127,14.46,319,5.015,1.164,9.57,101.8568,4.038,5.228,36.16,0,109.7,13.48,4.80,281.0
"2009-01-14 01:45:00",539128,16.07,312.8,4.463,0.67,9.62,101.8531,4.028,5.223,36.33,0,109.7,13.47,4.79,274.8
"2009-01-14 01:45:30",539129,14.92,314.7,4.307,0.762,9.62,101.8427,4.002,5.222,36.4,0,109.7,13.48,4.77,276.7
"2009-01-14 01:46:00",539130,13.49,307.6,3.257,0.894,9.15,101.8268,3.961,5.197,36.86,0,109.7,13.48,4.73,269.6
"2009-01-14 01:46:30",539131,14.07,310.5,3.557,1.023,9.18,101.8246,3.955,5.211,36.86,0,109.7,13.47,4.72,272.5
"2009-01-14 01:47:00",539132,13.48,307.2,3.221,0.954,9.2,101.8232,3.952,5.173,36.6,0,109.7,13.48,4.72,269.2
"2009-01-14 01:47:30",539133,13.21,303.9,3.576,0.821,9.15,101.8144,3.929,5.157,36.71,0,109.7,13.47,4.70,265.9
"2009-01-14 01:48:00",539134,13.23,305.5,3.308,0.926,8.9,101.8017,3.897,5.145,36.63,0,109.7,13.48,4.66,267.5
"2009-01-14 01:48:30",539135,13.29,307.4,3.507,0.966,8.81,101.7991,3.89,5.147,36.54,0,109.7,13.48,4.66,269.4
"2009-01-14 01:49:00",539136,12.59,304.2,4.233,0.963,8.76,101.7932,3.875,5.126,36.55,0,109.7,13.49,4.64,266.2